Location: Hamburg
(53.5500°N, 10.0000°E)
Time: 04:31:19
(UTC+01:00)

Vanguard 1 Rocket - Visible Passes

Search period start: 02 March 2015 00:00
Search period end: 12 March 2015 00:00
Orbit: 656 x 4223 km, 34.3° (Epoch: 27 February)

Date Brightness Start Highest point End Pass type
(mag) Time Alt. Az. Time Alt. Az. Time Alt. Az.
02 Mar 10.5 20:04:47 10° WSW 20:14:37 30° S 20:27:19 14° SE visible
02 Mar 11.1 22:31:36 10° WSW 22:41:51 18° SSW 22:44:38 18° SSW visible
03 Mar 10.3 18:54:43 10° SW 19:03:06 29° S 19:16:55 10° SE visible
03 Mar 10.9 21:19:38 10° WSW 21:29:41 23° SSW 21:37:52 17° S visible
04 Mar 10.6 20:08:45 10° WSW 20:17:50 26° SSW 20:31:09 11° SSE visible
04 Mar 11.3 22:37:30 10° WSW 22:44:55 14° SSW 22:48:29 12° SSW visible
05 Mar 10.4 18:58:33 10° WSW 19:06:23 26° S 19:18:50 10° SE visible
05 Mar 11.0 21:24:20 10° WSW 21:32:52 18° SSW 21:41:50 12° S visible
06 Mar 10.7 20:13:00 10° WSW 20:21:06 21° SSW 20:32:37 10° SSE visible
07 Mar 10.5 19:02:34 10° SW 19:09:42 23° S 19:20:29 10° SE visible
07 Mar 11.2 21:30:10 10° SW 21:36:05 13° SSW 21:42:23 10° S visible
08 Mar 10.9 20:17:45 10° SW 20:24:24 16° SSW 20:32:57 10° S visible
09 Mar 10.6 19:06:52 10° SW 19:13:04 19° SSW 19:21:44 10° SSE visible
10 Mar 11.1 20:23:52 10° SW 20:27:46 12° SSW 20:31:45 10° S visible
11 Mar 10.8 19:11:45 10° SW 19:16:29 14° SSW 19:22:17 10° S visible
